TimeCST,TemperatureF,Dew PointF,Humidity,Sea Level PressureIn,VisibilityMPH,Wind Direction,Wind SpeedMPH,Gust SpeedMPH,PrecipitationIn,Events,Conditions,WindDirDegrees,DateUTC
12:53 AM,16.0,9.0,74,30.49,10.0,NNW,13.8,-,N/A,,Clear,330,2011-12-05 06:53:00
1:53 AM,15.1,7.0,70,30.48,10.0,NNW,16.1,-,N/A,,Clear,330,2011-12-05 07:53:00
2:53 AM,12.0,5.0,73,30.50,10.0,NNW,13.8,-,N/A,,Clear,330,2011-12-05 08:53:00
3:53 AM,10.9,5.0,77,30.49,10.0,NNW,16.1,-,N/A,,Clear,330,2011-12-05 09:53:00
4:53 AM,10.9,3.9,73,30.49,10.0,NW,19.6,-,N/A,,Clear,320,2011-12-05 10:53:00
5:53 AM,10.0,3.9,76,30.51,10.0,NNW,16.1,-,N/A,,Clear,330,2011-12-05 11:53:00
6:53 AM,10.0,5.0,80,30.56,10.0,NW,15.0,-,N/A,,Mostly Cloudy,320,2011-12-05 12:53:00
7:53 AM,12.9,7.0,77,30.57,10.0,NNW,13.8,-,N/A,,Overcast,340,2011-12-05 13:53:00
8:53 AM,16.0,10.0,77,30.57,10.0,NNW,11.5,-,N/A,,Overcast,330,2011-12-05 14:53:00
9:53 AM,19.0,12.9,77,30.57,8.0,North,18.4,-,N/A,,Overcast,360,2011-12-05 15:53:00
10:53 AM,19.0,14.0,81,30.57,10.0,North,19.6,-,N/A,,Overcast,360,2011-12-05 16:53:00
11:53 AM,19.4,12.2,74,30.48,10.0,North,16.1,-,N/A,,Overcast,10,2011-12-05 17:53:00
12:18 PM,19.4,12.2,74,30.48,10.0,North,15.0,-,N/A,,Scattered Clouds,10,2011-12-05 18:18:00
12:53 PM,19.0,10.9,71,30.58,10.0,North,18.4,-,N/A,,Clear,360,2011-12-05 18:53:00
1:53 PM,18.0,9.0,68,30.57,10.0,North,15.0,-,N/A,,Clear,360,2011-12-05 19:53:00
2:53 PM,18.0,8.1,65,30.56,10.0,North,17.3,-,N/A,,Clear,360,2011-12-05 20:53:00
3:53 PM,17.6,8.6,68,30.43,10.0,North,10.4,-,N/A,,Clear,360,2011-12-05 21:53:00
4:53 PM,12.9,6.1,74,30.57,10.0,North,6.9,-,N/A,,Clear,350,2011-12-05 22:53:00
5:53 PM,8.1,3.0,80,30.57,10.0,NNW,5.8,-,N/A,,Clear,340,2011-12-05 23:53:00
6:53 PM,7.0,1.9,80,30.58,10.0,NNW,4.6,-,N/A,,Clear,340,2011-12-06 00:53:00
7:53 PM,5.0,1.0,84,30.58,10.0,Calm,Calm,-,N/A,,Clear,0,2011-12-06 01:53:00
8:53 PM,3.9,-0.9,80,30.60,10.0,North,3.5,-,N/A,,Clear,360,2011-12-06 02:53:00
9:53 PM,3.9,1.0,88,30.59,10.0,NNW,3.5,-,N/A,,Clear,340,2011-12-06 03:53:00
10:53 PM,5.0,1.0,84,30.58,10.0,Calm,Calm,-,N/A,,Clear,0,2011-12-06 04:53:00
11:53 PM,3.9,1.9,91,30.58,10.0,Calm,Calm,-,N/A,,Clear,0,2011-12-06 05:53:00